Theta_e
344 341 343 345 345 346 344 347 347 346 346 346 345 346 345 343 343 345 345 346 347 349 349 349 349 347 342 342 342 341 339 331 328 338 337 335 339 343
341 340 342 342 347 346 342 341 345 345 346 345 346 345 345 344 345 344 344 343 344 348 348 346 347 346 345 345 345 344 344 342 340 341 342 341 335 337
345 344 343 345 347 347 344 347 347 347 346 346 346 344 342 341 344 344 345 343 346 349 347 346 346 346 346 345 344 344 343 344 343 341 343 344 336 333
346 345 342 342 340 341 342 342 343 345 346 346 345 343 342 343 349 349 349 348 348 347 346 349 346 339 346 346 345 342 344 345 343 344 344 343 341 337
342 344 345 347 346 346 347 345 344 342 341 341 343 343 348 346 348 347 342 343 344 342 340 335 337 340 344 345 348 345 347 347 345 346 346 344 340 335
346 345 345 348 347 345 345 345 345 345 345 343 343 344 344 342 341 340 337 336 336 337 338 338 341 348 349 350 351 350 348 348 346 346 346 346 346 346
342 344 343 346 345 343 345 345 344 342 343 342 340 338 338 340 341 339 340 338 337 338 337 339 344 347 349 350 348 349 349 348 350 349 347 347 348 348
345 345 345 341 342 341 341 341 344 343 342 341 340 341 341 343 344 342 340 340 339 342 341 342 345 345 346 346 348 349 348 351 350 350 348 350 350 351
342 341 340 340 340 340 341 342 341 342 342 340 339 339 341 342 342 340 340 341 344 345 346 344 343 342 341 340 340 341 343 350 349 347 349 348 347 348
342 342 341 339 339 341 342 342 341 341 341 342 342 342 342 342 341 340 342 343 344 345 345 340 340 338 339 337 341 337 339 340 340 342 344 347 348 349
341 341 342 341 340 339 340 339 339 339 339 340 340 340 339 339 341 343 343 343 341 341 337 333 332 336 336 334 339 333 333 336 335 337 344 341 343 341
340 340 340 339 338 337 336 335 333 331 330 327 331 335 337 339 338 337 336 335 333 332 332 332 330 330 331 335 331 330 330 332 334 332 333 339 344 341
336 336 336 336 335 335 334 333 330 329 330 330 329 323 333 336 333 331 329 328 328 327 326 327 327 327 327 327 327 328 328 330 331 331 331 335 341 342
328 327 325 324 323 321 318 317 314 314 314 314 314 315 318 320 322 322 321 321 322 322 322 322 323 323 322 322 322 323 324 323 325 327 329 329 332 338
317 314 313 312 312 312 314 316 316 318 317 316 315 315 316 316 315 315 314 313 314 314 313 313 312 312 312 311 311 311 310 312 316 318 315 318 321 324
307 308 308 311 314 315 316 318 318 317 316 314 314 312 310 308 307 306 306 306 306 306 307 306 306 306 306 306 306 307 309 309 308 307 308 308 308 308
304 309 313 315 316 317 317 317 316 316 315 313 308 306 305 305 305 305 305 305 305 305 305 305 305 304 304 304 304 304 304 304 304 305 305 306 307 306
305 310 311 312 312 313 313 312 310 307 306 306 305 305 304 304 304 304 303 303 303 303 302 302 303 303 304 304 303 303 302 302 303 303 303 304 306 306
309 312 312 312 311 311 310 309 307 305 305 304 304 304 303 303 302 302 302 301 301 301 301 301 301 301 302 301 301 300 300 301 301 302 302 302 303 304
313 313 312 312 311 309 308 306 305 304 304 303 302 302 301 301 300 300 300 300 300 300 300 300 300 300 300 299 300 301 300 300 300 301 301 302 302 303
311 310 310 310 309 307 306 304 303 303 302 301 300 300 300 299 300 300 299 299 299 300 300 299 299 299 300 300 300 301 302 301 301 300 301 301 301 302
309 309 308 308 307 305 304 303 302 301 300 299 299 298 298 298 299 299 299 299 299 298 298 299 299 299 300 299 298 299 300 301 300 300 298 299 299 299
308 308 307 306 304 303 302 301 300 299 299 298 297 297 297 298 298 298 298 298 298 298 298 298 299 298 298 297 296 296 296 297 298 300 300 299 298 297
Wind_Speed
6 8 7 5 4 5 5 5 6 7 7 7 4 6 9 14 8 10 11 12 14 18 20 19 16 13 10 11 13 15 16 13 10 13 14 12 9 7
8 10 9 9 8 9 8 6 4 4 5 7 6 7 8 11 12 13 13 14 13 16 16 13 13 11 8 11 13 14 15 14 13 13 15 15 12 9
10 10 13 11 10 11 9 6 2 2 3 7 8 7 10 12 13 13 13 9 12 9 8 11 13 11 6 8 11 16 16 15 13 13 15 15 13 10
12 10 11 12 12 12 10 12 12 11 10 11 11 12 13 12 8 6 7 6 5 15 15 17 17 16 15 13 16 14 13 17 12 9 12 13 11 11
12 10 9 9 9 10 11 11 11 11 12 12 12 10 8 9 12 13 14 13 14 15 14 15 15 14 12 12 13 11 14 12 9 12 14 13 12 11
12 12 11 10 12 12 11 7 8 8 8 11 11 13 14 14 15 18 19 14 13 11 12 13 9 8 9 9 8 8 13 11 10 11 12 12 14 15
9 10 13 10 11 10 13 12 13 13 12 11 11 11 11 12 13 13 15 15 15 16 14 13 8 10 7 9 9 15 11 7 6 8 7 8 13 15
11 12 13 12 11 11 11 12 11 12 11 11 11 12 13 13 14 14 16 18 19 14 15 11 11 10 11 13 14 12 11 8 11 9 8 10 11 12
12 13 12 12 13 12 11 11 11 13 14 15 15 15 16 13 14 15 14 13 12 12 18 14 12 13 14 15 14 12 11 13 15 14 14 13 14 15
13 12 12 13 12 11 10 11 12 14 14 14 14 13 13 14 15 15 13 14 14 11 9 15 16 17 17 15 10 14 12 14 14 15 13 13 16 17
9 10 10 9 8 7 6 6 8 9 10 9 9 11 10 11 12 11 10 12 10 6 6 15 18 23 23 18 7 19 14 11 10 11 12 13 13 15
9 8 8 8 8 8 8 8 8 8 8 6 7 7 7 7 7 8 8 11 12 7 15 17 18 23 25 9 23 22 21 18 18 18 16 15 13 16
11 11 11 12 12 12 11 12 12 12 12 14 12 10 12 12 11 9 9 11 11 7 15 14 18 20 18 25 23 24 22 20 21 23 20 17 15 17
9 9 9 9 10 11 8 9 7 7 6 7 8 9 10 10 9 10 10 9 11 12 14 17 18 21 23 26 28 30 27 22 23 23 23 22 20 17
9 9 9 7 10 9 8 8 6 6 6 7 7 8 9 11 12 12 12 10 10 12 13 15 17 18 20 21 25 26 30 26 20 25 29 27 27 26
6 7 6 6 9 9 8 7 8 8 8 9 10 11 11 10 11 12 12 12 14 13 13 16 17 18 19 18 21 23 23 26 30 31 31 31 30 28
5 8 8 8 10 10 10 9 9 9 11 11 9 9 10 10 11 12 14 15 17 19 20 20 20 20 20 21 19 19 27 29 31 35 37 36 32 33
8 10 11 11 10 10 10 10 10 8 7 7 7 9 10 12 13 14 15 16 19 20 23 25 28 28 27 25 22 29 30 38 39 39 40 42 41 38
12 12 9 6 5 6 7 7 6 5 6 7 8 10 12 13 14 16 17 18 19 21 23 25 28 31 35 36 37 30 39 38 41 42 42 42 46 46
13 11 9 8 8 8 8 7 6 6 6 8 9 10 11 13 14 15 17 19 21 22 24 25 28 30 31 33 39 41 38 40 42 45 47 47 46 47
12 9 9 9 8 9 8 7 6 6 7 8 9 10 11 13 13 15 17 18 20 22 24 25 27 27 29 31 36 40 39 38 40 43 45 48 50 55
10 9 9 9 10 9 8 8 7 7 7 7 7 9 11 13 14 15 17 19 21 23 25 26 27 29 31 33 37 42 44 44 42 41 39 35 36 42
11 13 13 13 11 9 7 9 8 7 6 7 10 11 12 13 15 16 18 20 21 22 24 27 28 29 30 33 36 42 46 48 50 50 45 39 38 33
Wind_Direction
231 237 250 280 298 334 320 324 9 14 356 348 2 5 339 359 359 340 319 316 333 335 337 329 328 331 3 5 7 8 10 6 4 4 358 345 335 333
246 242 245 251 284 288 305 292 306 308 321 332 336 332 345 342 336 326 316 314 329 330 339 348 322 335 343 349 347 344 343 339 342 344 345 347 333 320
253 249 252 258 269 280 294 292 257 290 308 296 318 322 331 318 322 322 318 320 315 332 346 344 341 335 331 327 342 335 331 332 316 324 330 336 334 323
259 258 269 267 272 276 291 292 284 287 288 288 286 297 303 311 325 350 348 330 279 296 308 316 320 316 306 310 309 311 314 325 327 330 335 338 329 320
249 264 269 261 256 269 280 289 285 281 289 289 280 277 285 293 288 302 315 297 297 304 307 315 320 327 318 320 331 316 321 320 345 8 0 354 343 333
247 254 261 259 267 272 277 280 277 277 287 290 285 281 291 296 302 302 302 316 328 332 322 325 318 349 0 351 357 342 328 314 343 347 353 355 358 357
224 250 256 266 275 275 280 273 275 278 290 291 289 291 291 294 299 310 318 319 326 336 323 342 306 316 328 356 330 351 350 339 330 323 323 332 336 339
230 243 253 264 280 273 279 275 274 279 281 285 295 303 305 310 310 316 322 325 329 345 333 348 339 326 320 325 334 334 339 314 316 327 317 305 306 315
235 249 266 273 274 274 270 275 276 273 281 290 296 295 301 310 305 308 315 316 321 333 330 334 335 329 329 338 331 315 310 309 312 315 315 312 310 307
243 251 261 266 272 276 275 269 267 269 272 280 288 294 295 294 297 301 306 311 318 337 342 328 328 323 325 338 326 348 342 338 340 342 331 324 318 312
246 250 247 258 269 270 264 270 275 272 277 287 294 295 293 289 294 293 293 293 327 55 307 330 331 320 330 345 331 341 330 331 334 341 334 335 336 335
240 241 247 257 263 272 274 269 267 270 269 259 248 242 243 257 289 314 314 327 337 330 313 332 316 326 327 315 322 326 329 332 330 331 330 329 318 332
256 259 264 269 275 276 276 278 276 267 272 274 271 261 256 260 271 291 305 308 309 310 313 320 313 321 323 316 317 320 326 328 325 323 327 323 322 318
255 258 259 261 262 266 268 264 265 273 280 288 288 283 280 279 285 296 306 306 297 300 300 303 308 315 316 318 321 319 320 323 314 311 309 309 306 307
256 257 254 246 252 260 254 257 255 268 280 297 301 302 306 309 308 301 295 296 290 293 299 306 312 312 316 320 321 321 320 325 316 312 313 312 311 307
238 247 238 217 226 239 245 245 260 280 295 305 308 310 310 305 308 311 308 307 305 306 317 320 320 321 319 320 320 318 318 324 319 320 315 313 312 311
223 205 204 207 214 223 239 253 268 281 290 295 298 303 311 320 327 331 334 337 338 335 333 333 332 333 337 334 330 323 320 320 320 320 317 311 308 311
218 211 217 221 231 241 254 265 272 280 288 300 313 324 333 337 342 343 343 344 345 346 345 343 338 333 334 337 339 332 332 331 330 328 326 322 312 312
204 205 216 238 260 268 270 277 291 303 326 333 336 342 348 347 344 345 345 344 346 348 349 347 345 344 342 339 336 340 334 332 328 324 324 323 318 314
193 198 217 248 275 283 283 285 290 308 323 332 339 343 344 343 342 344 346 346 346 346 346 347 347 347 346 337 329 329 335 333 332 327 325 320 317 314
190 208 239 265 283 286 286 289 299 313 325 338 342 340 341 340 343 343 344 343 343 341 342 345 347 342 337 333 331 332 332 333 333 330 327 323 322 317
207 234 256 280 288 287 290 295 305 309 321 332 340 341 338 338 341 344 342 342 345 348 347 348 349 347 348 348 342 339 337 337 336 332 328 326 322 312
248 263 276 279 278 276 289 297 304 311 325 335 339 338 337 340 344 343 347 353 354 357 356 353 353 354 354 351 345 342 340 339 337 332 327 325 322 309